When you browse on this site, cookies collect data to enhance your experience and personalize the content and advertising you see.
Visit our Privacy Policy to learn more. By continuing to use the site, you agree to this use of cookies and data.

Hourly Weather Workington

Today, 15 August, Saturday

Time Temperature Precipitation Wind Pressure Humidity
00:00 +17°C° 0 mm 3 mps 762 mmHg 94%
01:00 +16°C° 0.1 mm 3 mps 762 mmHg 93%
02:00 +16°C° 0.1 mm 3 mps 762 mmHg 93%
03:00 +16°C° 0.1 mm 3 mps 762 mmHg 93%
04:00 +16°C° 0 mm 3 mps 762 mmHg 93%
05:00 +16°C° 0 mm 3 mps 762 mmHg 93%
06:00 +16°C° 0 mm 3 mps 762 mmHg 93%
07:00 +17°C° 0 mm 3 mps 762 mmHg 90%
08:00 +18°C° 0 mm 3 mps 762 mmHg 87%
09:00 +20°C° 0 mm 3 mps 763 mmHg 84%
10:00 +20°C° 0 mm 3 mps 762 mmHg 82%
11:00 +21°C° 0 mm 2 mps 762 mmHg 80%
12:00 +23°C° 0 mm 2 mps 762 mmHg 78%
13:00 +23°C° 0 mm 2 mps 762 mmHg 77%
14:00 +23°C° 0 mm 2 mps 762 mmHg 76%
15:00 +24°C° 0 mm 2 mps 762 mmHg 76%
16:00 +23°C° 0.1 mm 2 mps 762 mmHg 79%
17:00 +22°C° 0.1 mm 3 mps 761 mmHg 82%
18:00 +21°C° 0.1 mm 3 mps 761 mmHg 85%
19:00 +20°C° 0.1 mm 3 mps 761 mmHg 87%
20:00 +19°C° 0.1 mm 4 mps 762 mmHg 89%
21:00 +18°C° 0.1 mm 4 mps 762 mmHg 90%
22:00 +17°C° 0 mm 4 mps 762 mmHg 91%
23:00 +15°C° 0 mm 4 mps 761 mmHg 92%

Tomorrow, 16 August, Sunday

Time Temperature Precipitation Wind Pressure Humidity
00:00 +16°C° 0 mm 3 mps 761 mmHg 92%
01:00 +16°C° 0 mm 3 mps 761 mmHg 93%
02:00 +14°C° 0 mm 4 mps 761 mmHg 93%
03:00 +14°C° 0 mm 4 mps 761 mmHg 93%
04:00 +14°C° 0 mm 4 mps 761 mmHg 93%
05:00 +14°C° 0 mm 4 mps 760 mmHg 92%
06:00 +14°C° 0 mm 4 mps 760 mmHg 91%
07:00 +15°C° 0 mm 4 mps 760 mmHg 88%
08:00 +17°C° 0 mm 4 mps 760 mmHg 86%
09:00 +18°C° 0 mm 4 mps 760 mmHg 83%
10:00 +18°C° 0 mm 4 mps 760 mmHg 83%
11:00 +18°C° 0 mm 4 mps 760 mmHg 82%
12:00 +18°C° 0 mm 4 mps 760 mmHg 81%
13:00 +18°C° 0 mm 4 mps 760 mmHg 81%
14:00 +18°C° 0 mm 4 mps 759 mmHg 81%
15:00 +18°C° 0 mm 4 mps 759 mmHg 82%
16:00 +18°C° 0 mm 4 mps 759 mmHg 83%
17:00 +18°C° 0 mm 4 mps 758 mmHg 84%
18:00 +17°C° 0 mm 4 mps 758 mmHg 85%
19:00 +17°C° 0 mm 4 mps 758 mmHg 85%
20:00 +15°C° 0 mm 5 mps 758 mmHg 84%
21:00 +15°C° 0 mm 5 mps 758 mmHg 84%
22:00 +14°C° 0.2 mm 5 mps 758 mmHg 85%
23:00 +14°C° 0.2 mm 5 mps 757 mmHg 86%

Day after tomorrow, 17 August, Monday

Time Temperature Precipitation Wind Pressure Humidity
00:00 +14°C° 0.2 mm 5 mps 757 mmHg 87%
01:00 +14°C° 0.7 mm 5 mps 757 mmHg 89%
02:00 +14°C° 0.7 mm 5 mps 756 mmHg 91%
03:00 +14°C° 0.7 mm 5 mps 756 mmHg 93%
04:00 +14°C° 0.3 mm 5 mps 756 mmHg 93%
05:00 +14°C° 0.3 mm 5 mps 755 mmHg 93%
06:00 +14°C° 0.3 mm 5 mps 755 mmHg 94%
07:00 +15°C° 0.1 mm 4 mps 755 mmHg 92%
08:00 +15°C° 0.1 mm 4 mps 755 mmHg 91%
09:00 +17°C° 0.1 mm 4 mps 755 mmHg 90%
10:00 +18°C° 0 mm 4 mps 755 mmHg 88%
11:00 +18°C° 0 mm 3 mps 755 mmHg 87%
12:00 +19°C° 0 mm 2 mps 754 mmHg 86%
13:00 +19°C° 0.1 mm 3 mps 754 mmHg 86%
14:00 +19°C° 0.1 mm 3 mps 754 mmHg 86%
15:00 +19°C° 0.1 mm 4 mps 754 mmHg 87%
16:00 +19°C° 0.2 mm 4 mps 754 mmHg 87%
17:00 +19°C° 0.2 mm 3 mps 753 mmHg 88%
18:00 +19°C° 0.2 mm 3 mps 753 mmHg 88%
19:00 +18°C° 0.2 mm 3 mps 753 mmHg 90%
20:00 +17°C° 0.2 mm 3 mps 753 mmHg 91%
21:00 +16°C° 0.2 mm 3 mps 753 mmHg 93%
22:00 +16°C° 0.1 mm 3 mps 753 mmHg 93%
23:00 +16°C° 0.1 mm 3 mps 753 mmHg 93%

18 August, Tuesday

Time Temperature Precipitation Wind Pressure Humidity
00:00 +16°C° 0.1 mm 3 mps 753 mmHg 93%
01:00 +15°C° 0.3 mm 2 mps 753 mmHg 93%
02:00 +15°C° 0.3 mm 2 mps 753 mmHg 93%
03:00 +15°C° 0.3 mm 2 mps 753 mmHg 93%
04:00 +15°C° 0.2 mm 1 mps 753 mmHg 94%
05:00 +15°C° 0.2 mm 1 mps 753 mmHg 94%
06:00 +16°C° 0.2 mm 1 mps 753 mmHg 94%
07:00 +16°C° 0.1 mm 1 mps 753 mmHg 93%
08:00 +18°C° 0.1 mm 1 mps 753 mmHg 91%
09:00 +19°C° 0.1 mm 1 mps 753 mmHg 90%
10:00 +18°C° 0.2 mm 2 mps 753 mmHg 91%
11:00 +18°C° 0.2 mm 3 mps 753 mmHg 91%
12:00 +18°C° 0.2 mm 3 mps 753 mmHg 91%
13:00 +18°C° 0.2 mm 4 mps 753 mmHg 90%
14:00 +18°C° 0.2 mm 4 mps 753 mmHg 89%
15:00 +17°C° 0.2 mm 5 mps 753 mmHg 88%
16:00 +18°C° 0.1 mm 4 mps 753 mmHg 89%
17:00 +18°C° 0.1 mm 4 mps 753 mmHg 89%
18:00 +17°C° 0.1 mm 4 mps 753 mmHg 90%
19:00 +17°C° 0 mm 4 mps 753 mmHg 91%
20:00 +15°C° 0 mm 4 mps 753 mmHg 93%
21:00 +15°C° 0 mm 4 mps 754 mmHg 94%
22:00 +14°C° 0 mm 4 mps 754 mmHg 95%
23:00 +14°C° 0 mm 3 mps 753 mmHg 95%

19 August, Wednesday

Time Temperature Precipitation Wind Pressure Humidity
00:00 +14°C° 0 mm 3 mps 753 mmHg 95%
01:00 +14°C° 0 mm 3 mps 753 mmHg 95%
02:00 +13°C° 0 mm 3 mps 753 mmHg 95%
03:00 +14°C° 0 mm 2 mps 753 mmHg 95%
04:00 +14°C° 0 mm 2 mps 753 mmHg 95%
05:00 +14°C° 0 mm 2 mps 753 mmHg 95%
06:00 +14°C° 0 mm 1 mps 753 mmHg 95%
07:00 +15°C° 0 mm 2 mps 753 mmHg 92%
08:00 +16°C° 0 mm 2 mps 752 mmHg 90%
09:00 +17°C° 0 mm 3 mps 752 mmHg 87%
10:00 +18°C° 0 mm 3 mps 752 mmHg 86%
11:00 +18°C° 0 mm 4 mps 752 mmHg 85%
12:00 +19°C° 0 mm 4 mps 752 mmHg 84%
13:00 +19°C° 0 mm 4 mps 751 mmHg 83%
14:00 +19°C° 0 mm 4 mps 751 mmHg 81%
15:00 +20°C° 0 mm 4 mps 750 mmHg 79%
16:00 +20°C° 0 mm 4 mps 750 mmHg 80%
17:00 +19°C° 0 mm 3 mps 749 mmHg 81%
18:00 +19°C° 0 mm 2 mps 749 mmHg 82%
19:00 +18°C° 0.7 mm 3 mps 748 mmHg 86%
20:00 +17°C° 0.7 mm 5 mps 747 mmHg 89%
21:00 +16°C° 0.7 mm 6 mps 746 mmHg 93%
22:00 +16°C° 4.1 mm 6 mps 745 mmHg 94%
23:00 +16°C° 4.1 mm 6 mps 744 mmHg 96%

20 August, Thursday

Time Temperature Precipitation Wind Pressure Humidity
00:00 +15°C° 4.1 mm 6 mps 744 mmHg 97%
01:00 +16°C° 0.6 mm 6 mps 743 mmHg 97%
02:00 +16°C° 0.6 mm 7 mps 743 mmHg 96%
03:00 +17°C° 0.6 mm 8 mps 743 mmHg 96%
04:00 +16°C° 0.1 mm 8 mps 743 mmHg 95%
05:00 +15°C° 0.1 mm 8 mps 744 mmHg 93%
06:00 +13°C° 0.1 mm 9 mps 744 mmHg 92%
07:00 +13°C° 0 mm 8 mps 745 mmHg 89%
08:00 +15°C° 0 mm 7 mps 745 mmHg 86%
09:00 +15°C° 0 mm 7 mps 746 mmHg 82%
10:00 +16°C° 0 mm 7 mps 746 mmHg 80%
11:00 +16°C° 0 mm 8 mps 746 mmHg 78%
12:00 +17°C° 0 mm 8 mps 746 mmHg 77%
13:00 +17°C° 0.1 mm 8 mps 746 mmHg 75%
14:00 +18°C° 0.1 mm 7 mps 745 mmHg 74%
15:00 +18°C° 0.1 mm 7 mps 745 mmHg 73%
16:00 +18°C° 0 mm 7 mps 744 mmHg 75%
17:00 +17°C° 0 mm 6 mps 744 mmHg 78%
18:00 +17°C° 0 mm 5 mps 743 mmHg 80%
19:00 +16°C° 0.2 mm 5 mps 743 mmHg 83%
20:00 +16°C° 0.2 mm 6 mps 742 mmHg 86%
21:00 +15°C° 0.2 mm 6 mps 742 mmHg 89%
22:00 +15°C° 2.5 mm 7 mps 741 mmHg 92%
23:00 +15°C° 2.5 mm 8 mps 741 mmHg 94%
Show more